Regional Weather Roundup
Issued by NWS Sioux Falls, SD

Home | Current Version | Previous Version | Graphics & Text | Print | Product List | Glossary Off
Versions: 1 2 3 4 5 6 7 8 9 10 11 12 13 14 15 16 17 18 19 20 21 22 23 24 25 26 27 28 29 30 31 32 33 34 35 36 37 38 39 40 41 42 43 44 45 46 47 48 49 50

000
ASUS43 KFSD 300902
RWRFSD

WEATHER ROUNDUP FOR SE SOUTH DAKOTA/SW MINNESOTA/NW IOWA
NATIONAL WEATHER SERVICE SIOUX FALLS SD
400 AM CDT MON MAY 30 2016

NOTE: "FAIR" INDICATES FEW OR NO CLOUDS BELOW 12,000 FEET WITH NO
SIGNIFICANT WEATHER AND OR OBSTRUCTIONS TO VISIBILITY.


SDZ038>040-050-052>070-301000-
SOUTHEAST SOUTH DAKOTA

CITY           SKY/WX    TMP DP  RH WIND       PRES   REMARKS
BROOKINGS      CLOUDY    58  52  80 SE5       30.00R
CHAMBERLAIN    NOT AVBL
HURON          HVY RAIN  62  56  80 SW13      29.99R
MADISON        CLOUDY    59  59 100 N8        30.05R
MITCHELL       RAIN      64  58  80 S12       30.03R
SIOUX FALLS    CLOUDY    63  53  70 S5        30.02R
WINNER         PTSUNNY   62  56  80 E14       29.96R
YANKTON        CLOUDY    63  57  82 N13       29.98F
$$

MNZ071-072-080-081-089-090-097-098-301000-
SOUTHWEST MINNESOTA

CITY           SKY/WX    TMP DP  RH WIND       PRES   REMARKS
FAIRMONT       CLOUDY    57  52  82 CALM      30.00S
JACKSON        CLOUDY    57  50  77 CALM      30.01S
LUVERNE        CLOUDY    59  52  77 W6        30.05R
MARSHALL       CLOUDY    58  52  80 CALM      29.99F
MONTEVIDEO     CLOUDY    55  48  76 CALM      30.00S
PIPESTONE      CLOUDY    59  54  82 SW14G22   30.04R
REDWOOD FALLS  CLOUDY    56  50  80 S7        29.99S
TRACY          CLOUDY    62  52  71 SW3       29.99F
WINDOM         CLOUDY    55  52  88 CALM      30.00F
WORTHINGTON    TSTM      59  55  87 S5        30.02R
$$

IAZ001>003-012>014-020>022-031-032-NEZ013-014-SDZ071-301000-
NORTHWEST IOWA

CITY           SKY/WX    TMP DP  RH WIND       PRES   REMARKS
ESTHERVILLE    CLOUDY    56  53  90 CALM      30.00F
SIOUX CITY     CLOUDY    63  57  81 N6        29.98F
SPENCER        CLOUDY    57  54  89 E3        29.99F
STORM LAKE     CLOUDY    63  52  67 SE7       30.01S
$$

ABBREVIATIONS USED IN REMARKS
   TC - TEMPERATURE IN CELSIUS
  WCI - WIND CHILL INDEX
   HX - HEAT INDEX
  VSB - VISIBILITY





USA.gov is the U.S. government's official web portal to all federal, state and local government web resources and services.